Regional Weather Roundup
Issued by NWS

Home | Current Version | Previous Version | Graphics & Text | Print | Product List | Glossary On
Versions: 1 2 3 4 5 6 7 8 9 10 11 12 13 14 15 16 17 18 19 20 21 22 23 24 25 26 27 28 29 30 31 32 33 34 35 36 37 38 39 40 41 42 43 44 45 46 47 48 49 50
000
ASUS43 KMPX 301801
RWRMN
WEATHER ROUNDUP FOR MINNESOTA
NATIONAL WEATHER SERVICE TWIN CITIES/CHANHASSEN MN
100 PM CDT THU MAR 30 2017


NOTE: "FAIR" INDICATES FEW OR NO CLOUDS BELOW 12,000 FEET WITH NO
SIGNIFICANT WEATHER AND/OR OBSTRUCTIONS TO VISIBILITY. N/A MEANS
CURRENT SKY AND/OR WEATHER CONDITIONS ARE NOT AVAILABLE.

MNZ060>063-068>070-301900-
   Twin Cities Metro

CITY           SKY/WX    TMP DP  RH WIND       PRES   REMARKS
TWIN CITIES    CLOUDY    45  34  65 NE17      29.83F
6HR MIN TEMP:  39; 6HR MAX TEMP:  45;

ST PAUL        CLOUDY    44  36  73 NE15      29.85F
CRYSTAL        CLOUDY    46  33  60 E15       29.83F
BLAINE         CLOUDY    48  36  61 E14G22    29.84F
LAKEVILLE      CLOUDY    39  37  93 E15       29.81F
EDEN PRAIRIE   CLOUDY    46  35  65 NE12      29.82F
6HR MIN TEMP:  40; 6HR MAX TEMP:  46;

SOUTH ST PAUL  CLOUDY    45  35  69 E14       29.83F
LAKE ELMO      CLOUDY    45  36  70 E14       29.84F
$$
MNZ001>005-007-008-013>017-022>024-027-028-301900-
   Northwest Minnesota

CITY           SKY/WX    TMP DP  RH WIND       PRES   REMARKS
BEMIDJI        SUNNY     49  33  54 E9        29.92F
HALLOCK        CLOUDY    46  43  87 S13       29.90S
ROSEAU         CLOUDY    50  41  71 SW8       29.92F
WARROAD        PTSUNNY   46  39  76 NE5       29.93S
THIEF RVR FALL   N/A     44  39  82 S7        29.94
CROOKSTON      CLOUDY    43  39  87 S10       29.94S
FOSSTON        SUNNY     52  39  62 E9        29.91F
DETROIT LAKES  SUNNY     50  32  50 S9        29.90F
MOORHEAD       PTSUNNY   46  37  71 E6        29.92F
PARK RAPIDS    SUNNY     50  29  44 SE12G18   29.89F
MAHNOMEN       FAIR      49  34  56 SE3       29.91F
$$
MNZ006-009>011-018-025>026-301900-
   North Central Minnesota

CITY           SKY/WX    TMP DP  RH WIND       PRES   REMARKS
BAUDETTE         N/A     52  35  52 S10       29.92F
FLAG ISLAND    CLOUDY    37  32  81 SE8       29.93F
INTL FALLS     SUNNY     49  34  56 N9        29.95F
6HR MIN TEMP:  26; 6HR MAX TEMP:  50;

WASKISH        PTSUNNY   48  37  66 NW5       29.93F
BIG FORK       SUNNY     52  34  50 SE5       29.93F
LONGVILLE      SUNNY     48  30  49 NE9       29.91F
GRAND RAPIDS   SUNNY     47  32  56 VRB7      29.94F
CRANE LAKE     SUNNY     48  30  49 NW5       29.97F
ORR            SUNNY     52  27  37 CALM      29.92F
COOK           MOSUNNY   50  30  46 CALM      29.94F
WALKER         FAIR      41  32  72 E6        29.93F
$$
MNZ012-019>021-037-301900-
   Northeast Minnesota

CITY           SKY/WX    TMP DP  RH WIND       PRES   REMARKS
DULUTH         MOSUNNY   45  29  53 E15       29.93F
6HR MIN TEMP:  31; 6HR MAX TEMP:  46;

ELY            SUNNY     48  25  40 E8        29.94F
HIBBING        SUNNY     48  30  49 SE10      29.93F
EVELETH        SUNNY     50  24  35 E8        29.94F
DULUTH HARBOR  SUNNY     37  34  87 NE21      29.97F
TWO HARBORS    SUNNY     46  34  61 E12G21    29.95S
GRAND MARAIS     N/A     38  30  73 E16       30.03F
G MARAIS ARPRT SUNNY     39  25  56 E7        29.99S
$$
MNZ029>031-032-039>041-046>048-054>057-064-301900-
   West Central Minnesota

CITY           SKY/WX    TMP DP  RH WIND       PRES   REMARKS
FERGUS FALLS   MOSUNNY   52  30  43 SE9       29.91F
WHEATON        CLOUDY    46  36  66 E8        29.90F
MORRIS         PTSUNNY   46  37  71 E13       29.86F
ALEXANDRIA     CLOUDY    48  33  56 E13       29.87F
ELBOW LAKE     PTSUNNY   49  35  56 SE14      29.88F
WADENA         SUNNY     48  30  49 E8G16     29.88F
GLENWOOD       MOSUNNY   46  36  66 E15G21    29.87F
APPLETON       CLOUDY    46  37  71 E9        29.86F
BENSON         CLOUDY    50  32  50 SE8       29.87F
ORTONVILLE     CLOUDY    45  36  70 E7        29.87F
MADISON        CLOUDY    46  39  76 E8        29.86F
WILLMAR        PTSUNNY   46  37  71 NE9       29.86F
$$
MNZ033>034-036-042>043-049>051-058-059-301900-
   Central Minnesota

CITY           SKY/WX    TMP DP  RH WIND       PRES   REMARKS
ST CLOUD       PTSUNNY   46  35  65 NE10      29.87F
6HR MIN TEMP:  35; 6HR MAX TEMP:  48;

SAUK CENTRE    CLOUDY    45  34  65 E10       29.87F
PAYNESVILLE    CLOUDY    47  34  60 E9        29.86F
AITKIN         SUNNY     50  28  43 E9G16     29.89F
PINE RIVER     SUNNY     46  34  61 SE12      29.94F
BRAINERD       SUNNY     48  30  49 NE13      29.89F
STAPLES        SUNNY     48  27  43 E9G16     29.88F
LONG PRAIRIE   CLOUDY    45  32  61 NE10G16   29.88F
LITTLE FALLS   CLOUDY    46  32  57 NE7       29.88F
LITCHFIELD     CLOUDY    46  37  71 E12       29.85F
BUFFALO        CLOUDY    46  35  63 NE8       29.86F
MAPLE LAKE     PTSUNNY   48  37  65 NE10      29.86F
HUTCHINSON     CLOUDY    45  39  78 NE12      29.84F
$$
MNZ037-044-045-052-053-301900-
   East Central Minnesota

CITY           SKY/WX    TMP DP  RH WIND       PRES   REMARKS
PRINCETON      CLOUDY    48  34  57 NE9       29.87F
MORA           CLOUDY    45  32  61 E8        29.90F
CAMBRIDGE      CLOUDY    48  34  57 NE6       29.85F
RUSH CITY      CLOUDY    48  33  56 E10G17    29.88F
MOOSE LAKE     MOSUNNY   46  32  57 E7        29.89F
CLOQUET        SUNNY     45  25  45 E9G17     29.93F
MCGREGOR       SUNNY     48  32  53 E10       29.91F
$$
MNZ071>073-080-081-089-090-097-098-301900-
   Southwest Minnesota

CITY           SKY/WX    TMP DP  RH WIND       PRES   REMARKS
MONTEVIDEO     CLOUDY    46  37  71 E12       29.85F
GRANITE FALLS  CLOUDY    46  38  74 NE9G17    29.86F
CANBY          CLOUDY    45  38  76 CALM      29.86F
MARSHALL       CLOUDY    42  37  82 E13       29.84F
REDWOOD FALLS  CLOUDY    43  36  76 NE12      29.83F
OLIVIA         CLOUDY    43  36  75 E9        29.84S
PIPESTONE      CLOUDY    39  36  87 E12       29.80F
WINDOM         CLOUDY    39  37  93 NE13      29.80F
WORTHINGTON    CLOUDY    37  36  96 NE14      29.79F
JACKSON        CLOUDY    37  37 100 NE15      29.78F
TRACY          CLOUDY    41  39  92 E13       29.83F
SLAYTON        CLOUDY    37  36  98 NE12G18   29.82S
$$
MNZ065>067-074>077-082>085-091>093-301900-
   South Central Minnesota

CITY           SKY/WX    TMP DP  RH WIND       PRES   REMARKS
MANKATO        CLOUDY    40  36  86 NE12      29.80F
NEW ULM        CLOUDY    41  36  81 E10G18    29.81F
ST JAMES       CLOUDY    39  37  93 N10       29.81F
FAIRMONT       CLOUDY    39  37  92 NE15      29.77F
GLENCOE        CLOUDY    45  39  80 NE6       29.83F
FARIBAULT      CLOUDY    39  36  87 NE12G20   29.81F
OWATONNA       CLOUDY    39  36  87 NE12G22   29.79S
WASECA         CLOUDY    39  36  87 NE16      29.80F
ALBERT LEA     CLOUDY    37  37 100 NE18      29.76S
$$
MNZ078>079-086>088-094>096-301900-
   Southeast Minnesota

CITY           SKY/WX    TMP DP  RH WIND       PRES   REMARKS
ROCHESTER      CLOUDY    38  36  92 E20G26    29.79R
6HR MIN TEMP:  36; 6HR MAX TEMP:  39;

RED WING       CLOUDY    43  36  75 E12G18    29.82F
STANTON        CLOUDY    41  36  83 NE16      29.80F
DODGE CENTER   CLOUDY    37  36  93 E17       29.79R
WINONA         CLOUDY    41  36  81 E12G18    29.82R
AUSTIN         CLOUDY    39  36  87 NE17G23   29.76S
PRESTON        CLOUDY    37  34  88 NE13G18   29.77S
$$
ABBREVIATIONS USED IN REMARKS
   TC - TEMPERATURES IN CELSIUS
  WCI - WIND CHILL INDEX
   HX - HEAT INDEX
  VSB - VISIBILITY
$$




USA.gov is the U.S. government's official web portal to all federal, state and local government web resources and services.